Home   Weather   Puerto Vallarta   Past weeks

Flag for Mexico Past Weather in Puerto Vallarta, Jalisco, Mexico — Yesterday and Last 2 Weeks

Now
77 °F

Mostly cloudy.


Feels Like: 78 °F
Forecast: 65 / 82 °F
Wind: 8 mph from Southwest

Location: Puerto Vallarta / Lic

Current Time: Apr 24, 2017 at 8:12:25 pm

Latest Report: Apr 24, 2017 at 6:50 pm


Visibility: 10 mi

Pressure: 29.85 "Hg

Humidity: 83%

Dew Point: 72 °F

Location of Puerto VallartaLocation

Past Weather in Puerto Vallarta — Graph

°F

Puerto Vallarta Temperature Yesterday

Maximum temperature yesterday: 81 °F (at 1:45 pm)
Minimum temperature yesterday: 68 °F (at 7:47 am)
Average temperature yesterday: 75 °F

High & Low Weather Summary for the Past Weeks

 TemperatureHumidityPressure
High82 °F (Apr 13, 11:51 am)100% (Apr 9, 11:47 pm)29.96 "Hg (Apr 9, 11:47 pm)
Low59 °F (Apr 18, 7:45 am)42% (Apr 19, 12:45 pm)29.39 "Hg (Apr 16, 1:44 am)
Average74 °F81%29.87 "Hg
* Reported Apr 9 7:44 pm — Apr 24 6:50 pm, Puerto Vallarta, Weather by CustomWeather, © 2017

Note: Actual official high and low records may vary slightly from our data, if they occured in-between our weather recording intervals... More about our weather records

Advertising

Puerto Vallarta Weather History for the Previous 24 Hours

Scroll right to see more
 ConditionsComfort  
Time TempWeatherWind HumidityBarometerVisibility
6:50 pm
Mon, Apr 24
77 °FMostly cloudy.8 mph83%29.85 "Hg10 mi
5:49 pm79 °FBroken clouds.12 mph79%29.85 "Hg10 mi
4:47 pm81 °FBroken clouds.13 mph70%29.85 "Hg10 mi
3:50 pm81 °FPartly sunny.13 mph70%29.87 "Hg10 mi
2:45 pm81 °FScattered clouds.16 mph74%29.90 "Hg10 mi
1:44 pm79 °FScattered clouds.14 mph79%29.90 "Hg12 mi
12:46 pm81 °FScattered clouds.12 mph74%29.89 "Hg12 mi
11:48 am79 °FBroken clouds.6 mph74%29.92 "Hg12 mi
10:45 am77 °FOvercast.6 mph83%29.92 "Hg12 mi
9:44 am77 °FMostly cloudy.5 mph89%29.89 "Hg12 mi
8:49 am73 °FBroken clouds.No wind89%29.88 "Hg12 mi
7:52 am70 °FPartly sunny.No wind100%29.86 "Hg12 mi
6:48 am72 °FPassing clouds.No wind94%29.83 "Hg12 mi
5:46 am72 °FPassing clouds.No wind94%29.84 "Hg12 mi
4:42 am73 °FPassing clouds.No wind89%29.84 "Hg12 mi
3:50 am73 °FOvercast.No wind89%29.84 "Hg12 mi
2:45 am75 °FOvercast.No wind83%29.86 "Hg12 mi
1:42 am77 °FPassing clouds.No wind79%29.89 "Hg12 mi
12:44 am77 °FPassing clouds.No wind79%29.90 "Hg12 mi
11:44 pm
Sun, Apr 23
77 °FPassing clouds.No wind83%29.92 "Hg12 mi
10:42 pm77 °FPassing clouds.2 mph83%29.91 "Hg12 mi
9:46 pm77 °FPassing clouds.5 mph83%29.89 "Hg12 mi
8:46 pm77 °FMostly cloudy.5 mph83%29.86 "Hg15 mi
Weather by CustomWeather, © 2017

See weather overviewHow to use our weather pages